Overview Statistics Trail Chart Weather Telemetry Raw packets
 

This is the latest recevied weather packets stored in our database for station/object IR9AK-10. If no packets are shown the sender has not sent any weather packets the latest 10 day(s).

<< 37 38 39 40 41 42 43 >>
Time Temp. Humidity Pressure Rain* Wind** Luminosity Snow
1788024614 43.33° C 20% 1059.2 hPa - - - -
1788024014 43.33° C 21% 1059.5 hPa - - - -
1788023416 43.33° C 21% 1059.5 hPa - - - -
1788022818 43.89° C 20% 1059.6 hPa - - - -
1788022219 43.89° C 21% 1059.5 hPa - - - -
1788021620 44.44° C 23% 1059.8 hPa - - - -
1788021021 44.44° C 23% 1059.7 hPa - - - -
1788020422 45° C 26% 1059.7 hPa - - - -
1788019823 45° C 25% 1059.9 hPa - - - -
1788019223 45° C 22% 1060 hPa - - - -
1788018624 45.56° C 28% 1060.4 hPa - - - -
1788018025 46.11° C 29% 1060.5 hPa - - - -
1788017426 46.11° C 35% 1060.9 hPa - - - -
1788016828 46.67° C 30% 1060.9 hPa - - - -
1788016229 47.78° C 30% 1061 hPa - - - -
1788015629 48.33° C 22% 1061 hPa - - - -
1788015030 48.89° C 17% 1061.3 hPa - - - -
1788014431 51.11° C 18% 1061.3 hPa - - - -
1788013833 50° C 20% 1061.4 hPa - - - -
1788013233 46.11° C 21% 1061.5 hPa - - - -
1788012634 45.56° C 19% 1061.5 hPa - - - -
1788012035 45.56° C 21% 1061.7 hPa - - - -
1788011435 46.11° C 21% 1062 hPa - - - -
1788010837 45.56° C 20% 1062 hPa - - - -
1788010237 45.56° C 21% 1062.3 hPa - - - -

* Rain since midnight (hover to see other rain measurements)
** Current wind speed in m/s (hover to see current wind gust speed)